Location: Bartshausen
(51.8454°N, 9.8167°E)
Time: 22:54:25
(UTC+00:00)

Cosmos 2016 Rocket - Pass Details

Date: 08 November 2025
Orbit: 947 x 999 km, 83.0° (Epoch: 04 December)

Event Time Altitude Azimuth Distance (km) Brightness Sun altitude
Rises 03:58:59 0° 350° (N) 3,732 7.0 -23.1°
Reaches altitude 10° 04:01:32 10° 352° (N) 2,781 6.3 -22.7°
Maximum altitude 04:07:57 74° 78° (ENE) 1,039 4.2 -21.7°
Drops below altitude 10° 04:14:17 10° 164° (SSE) 2,755 6.6 -20.7°
Sets 04:16:48 0° 166° (SSE) 3,695 7.2 -20.3°
